NEUSAR (52937 NORAD) Tracking and Keplerian Element Data

This shows tracking and keplerian element data for the satellite.

Feedback or suggestion? Click here.




ElementValue
Catalog52937
NameNEUSAR
Epoch Orbit1001
Epoch Day248.05612845
Epoch Year2022
RAAN309.2416
Inclination9.9875
Eccentricity0.0007489
Argument of Perigee204.686
Mean Anonmoly155.2995
Mean Motion14.99836101
Decay Rate5.852E-05
L11 52937U 22072C 22248.05612845 .00005852 00000+0 40276-3 0 9999
L22 52937 9.9875 309.2416 0007489 204.6860 155.2995 14.99836101 10015

Live tracking and technical data element details for NEUSAR (NORAD 52937). NEUSAR can be tracked NOW for your location showing map with azimuth and elevation plus other details from your city location.

Track the satellite on the map from your city or location and see movement details for azimuth, elevation, latitude, longitude, range, height, and movement on the map or in text.







IsCatalogInMostPopularTable: catalog: 52937, numindb: 6
Update: records affected: 1



GetName: 52937 NEUSAR

Hit Count: updated at: Sun, 25 Sep 2022 08:29:51 GMT